Home > Time Zones > World Clock > Weather > India > Churu > Past weeks

Flag for India Weather past 2 weeks in Churu, Rajasthan, India

Now
79 °F

Partly cloudy.


Feels Like: 82 °F
Forecast: 78 / 85 °F
Wind: 5 mph from West

Location: Jaipur / Sanganer

Current Time: Aug 1, 2015 at 1:45:40 AM

Latest Report: Aug 1, 2015 at 12:00 AM


Visibility: 2 mi

Pressure: 29.65 "Hg

Humidity: 84%

Dew point: 73 °F

Location of ChuruLocation

Historic Weather in Churu — Graph

°F

Churu temperature yesterday

Maximum temperature yesterday: 82 °F (at 12:00 PM)
Minimum temperature yesterday: 77 °F (at 1:00 AM)
Average temperature yesterday: 80 °F

Past Weeks' High & Low Weather Summary

 TemperatureHumidityPressure
High97 °F (Jul 17, 3:00 PM)100% (Jul 17, 4:00 PM)29.71 "Hg (Jul 17, 4:00 PM)
Low73 °F (Jul 27, 2:00 AM)47% (Jul 17, 2:00 PM)29.42 "Hg (Jul 26, 4:00 PM)
Average82 °F83%29.57 "Hg
* Reported Midnight between Jul 16 and Jul 17 — Midnight between Jul 31 and Aug 1, Churu, Weather by CustomWeather, © 2015

Note: Actual official high and low records may vary slightly from our data, if they occured in-between our weather recording intervals... More about our weather records

Advertising

Churu weather history for previous 24 hours

 ConditionsComfort  
Time TempWeatherWind HumidityBarometerVisibility
12:00 AM
Sat, Aug 1
79 °FPartly cloudy.5 mph84%29.65 "Hg1 mi
11:00 PM
Fri, Jul 31
79 °FPartly cloudy.5 mph89%29.68 "Hg1 mi
10:00 PM79 °FPartly cloudy.5 mph89%29.65 "Hg1 mi
9:00 PM81 °FPassing clouds.5 mph79%29.65 "Hg1 mi
7:00 PM81 °FFog.6 mph84%29.59 "Hg1 mi
6:00 PM81 °FFog.8 mph84%29.59 "Hg1 mi
4:00 PM82 °FDrizzle. Mostly cloudy.12 mph79%29.59 "Hg1 mi
3:00 PM82 °FDrizzle. Mostly cloudy.10 mph79%29.62 "Hg1 mi
2:00 PM82 °FDrizzle. Partly sunny.10 mph84%29.62 "Hg1 mi
1:00 PM82 °FMostly cloudy.10 mph79%29.65 "Hg2 mi
12:00 PM82 °FMostly cloudy.12 mph79%29.65 "Hg2 mi
10:00 AM79 °FPartly sunny.8 mph84%29.65 "Hg2 mi
9:00 AM79 °FMostly cloudy.9 mph84%29.62 "Hg2 mi
7:00 AM77 °FBroken clouds.7 mph89%29.59 "Hg2 mi
6:00 AM77 °FPartly cloudy.7 mph89%29.59 "Hg2 mi
5:00 AM77 °FFog.8 mph89%29.59 "Hg2 mi
4:00 AM77 °FFog.5 mph89%29.59 "Hg2 mi
1:00 AM77 °FFog.5 mph89%29.62 "Hg2 mi
Weather by CustomWeather, © 2015

See weather overviewHow to use our weather pages